User: anonymous   Login
Location: Ocean City
(38.3360°N, 75.0850°W)
Time: 22:41:08
(UTC-05:00)
Language:

Courier 1B Rocket - Orbit

View from above orbital plane
View from above orbital plane
View from above satellite
View from above satellite

Ground track
Ground track

The orbit data is extracted from the following two-line orbital elements,

1    59U 60013B   19320.93829747 +.00000106 +00000-0 +21950-4 0  9996
2    59 028.2489 234.9816 0189194 294.0495 064.0360 13.52972023917669
Epoch (UTC): 16 November 2019 22:31:08
Eccentricity: 0.0189194
inclination: 28.2489°
perigee height: 920 km
apogee height: 1202 km
right ascension of ascending node: 234.9816°
argument of perigee: 294.0495°
revolutions per day: 13.52972023
mean anomaly at epoch: 64.0360°
orbit number at epoch: 91766

The dashed part of the orbit path shows where the satellite is in the earth's shadow,  

DLR